| time (UTC) | temp F | wind direction | speed knots | gust knots | rain 1hr in | rain 24hr in | rain mn in | humidity % | barometer mb |
| 20260503194538 | 60 | 198 | 1.7 | 4.3 | 0.00 | 0.03 | 0.03 | 80 | 1014.7 |
| 20260503193044 | 59 | 214 | 1.7 | 4.3 | 0.00 | 0.03 | 0.03 | 82 | 1014.6 |
| 20260503191543 | 59 | 219 | 1.7 | 4.3 | 0.00 | 0.03 | 0.03 | 82 | 1014.7 |
| 20260503190044 | 59 | 207 | 0.9 | 3.5 | 0.00 | 0.03 | 0.03 | 84 | 1014.7 |
| 20260503184534 | 58 | 204 | 1.7 | 2.6 | 0.00 | 0.03 | 0.03 | 85 | 1014.6 |
| 20260503183037 | 57 | 221 | 1.7 | 3.5 | 0.00 | 0.03 | 0.03 | 86 | 1014.7 |
| 20260503181532 | 57 | 206 | 0.9 | 3.5 | 0.00 | 0.03 | 0.03 | 88 | 1014.6 |
| 20260503180050 | 55 | 194 | 0.9 | 3.5 | 0.00 | 0.03 | 0.03 | 89 | 1014.5 |
| 20260503174537 | 55 | 186 | 0.0 | 1.7 | 0.00 | 0.03 | 0.03 | 90 | 1014.6 |
| 20260503173051 | 54 | 0 | 0.0 | 0.0 | 0.00 | 0.03 | 0.03 | 89 | 1014.6 |
| 20260503171540 | 54 | 0 | 0.0 | 0.9 | 0.00 | 0.03 | 0.03 | 90 | 1014.7 |
| 20260503081543 | 54 | 0 | 0.0 | 2.6 | 0.00 | 0.00 | 0.00 | 82 | 1013.0 |
| 20260503071545 | 54 | 301 | 0.0 | 3.5 | 0.00 | 0.00 | 0.00 | 82 | 1013.1 |
| 20260503054540 | 55 | 0 | 0.0 | 2.6 | 0.00 | 0.00 | 0.00 | 82 | 1013.4 |
| 20260503053033 | 55 | 0 | 0.9 | 3.5 | 0.00 | 0.00 | 0.00 | 82 | 1013.4 |
| 20260503051530 | 55 | 0 | 0.0 | 0.9 | 0.00 | 0.00 | 0.00 | 81 | 1013.5 |
| 20260503050037 | 55 | 306 | 0.0 | 2.6 | 0.00 | 0.00 | 0.00 | 81 | 1013.5 |
| 20260503044536 | 55 | 246 | 0.0 | 4.3 | 0.00 | 0.00 | 0.00 | 81 | 1013.6 |
| 20260503043101 | 55 | 0 | 0.0 | 5.2 | 0.00 | 0.00 | 0.00 | 80 | 1013.6 |
| 20260503041536 | 55 | 0 | 0.0 | 3.5 | 0.00 | 0.00 | 0.00 | 80 | 1013.5 |
| 20260503040037 | 55 | 260 | 0.9 | 7.0 | 0.00 | 0.00 | 0.00 | 81 | 1013.3 |
| 20260503034536 | 55 | 268 | 0.0 | 6.1 | 0.00 | 0.00 | 0.00 | 80 | 1013.1 |
| 20260503033043 | 55 | 274 | 1.7 | 6.1 | 0.00 | 0.00 | 0.00 | 80 | 1012.9 |
| 20260503031535 | 55 | 249 | 0.9 | 6.1 | 0.00 | 0.00 | 0.00 | 80 | 1012.7 |
| 20260503030035 | 55 | 277 | 0.9 | 7.0 | 0.00 | 0.00 | 0.00 | 80 | 1012.8 |
| 20260503024537 | 55 | 263 | 0.0 | 2.6 | 0.00 | 0.00 | 0.00 | 81 | 1012.8 |
| 20260503023036 | 55 | 242 | 0.9 | 6.1 | 0.00 | 0.00 | 0.00 | 80 | 1012.7 |
| 20260503021538 | 55 | 255 | 0.9 | 4.3 | 0.00 | 0.00 | 0.00 | 80 | 1012.7 |
| 20260503020035 | 55 | 275 | 2.6 | 7.8 | 0.00 | 0.00 | 0.00 | 80 | 1012.5 |
| 20260503014558 | 56 | 0 | 0.9 | 6.1 | 0.00 | 0.00 | 0.00 | 81 | 1012.7 |
| 20260503013040 | 56 | 0 | 1.7 | 6.1 | 0.00 | 0.00 | 0.00 | 81 | 1012.9 |
| 20260503011545 | 56 | 260 | 0.9 | 8.7 | 0.00 | 0.00 | 0.00 | 80 | 1012.9 |
| 20260503010047 | 57 | 234 | 2.6 | 7.0 | 0.00 | 0.00 | 0.00 | 80 | 1012.9 |
| 20260503004539 | 57 | 234 | 1.7 | 7.0 | 0.00 | 0.00 | 0.00 | 80 | 1012.9 |
| 20260503003034 | 57 | 244 | 2.6 | 7.8 | 0.00 | 0.00 | 0.00 | 79 | 1012.8 |
| 20260503001539 | 57 | 268 | 2.6 | 8.7 | 0.00 | 0.00 | 0.00 | 80 | 1012.9 |
| 20260503000036 | 58 | 245 | 1.7 | 9.6 | 0.00 | 0.00 | 0.00 | 80 | 1013.1 |
| 20260502234542 | 57 | 258 | 1.7 | 7.0 | 0.00 | 0.00 | 0.00 | 79 | 1013.1 |
| 20260502233035 | 59 | 276 | 2.6 | 7.0 | 0.00 | 0.00 | 0.00 | 79 | 1013.2 |
| 20260502231537 | 59 | 246 | 1.7 | 7.0 | 0.00 | 0.00 | 0.00 | 80 | 1013.2 |
| 20260502230036 | 58 | 231 | 2.6 | 8.7 | 0.00 | 0.00 | 0.00 | 80 | 1013.4 |
| 20260502224533 | 59 | 239 | 2.6 | 7.0 | 0.00 | 0.00 | 0.00 | 79 | 1013.7 |
| 20260502223039 | 59 | 237 | 1.7 | 6.1 | 0.00 | 0.00 | 0.00 | 81 | 1014.0 |
| 20260502221536 | 58 | 288 | 2.6 | 8.7 | 0.00 | 0.00 | 0.00 | 80 | 1014.2 |
| 20260502220035 | 57 | 323 | 1.7 | 7.0 | 0.00 | 0.00 | 0.00 | 82 | 1014.3 |
| 20260502214535 | 57 | 271 | 1.7 | 7.8 | 0.00 | 0.00 | 0.00 | 81 | 1014.5 |
| 20260502213036 | 58 | 217 | 3.5 | 7.8 | 0.00 | 0.00 | 0.00 | 79 | 1014.7 |
| 20260502211542 | 60 | 206 | 2.6 | 6.1 | 0.00 | 0.00 | 0.00 | 78 | 1014.7 |
| 20260502210038 | 61 | 218 | 3.5 | 7.8 | 0.00 | 0.00 | 0.00 | 79 | 1014.8 |
| 20260502204530 | 59 | 199 | 2.6 | 6.1 | 0.00 | 0.00 | 0.00 | 80 | 1014.7 |
| 20260502203035 | 59 | 230 | 1.7 | 5.2 | 0.00 | 0.00 | 0.00 | 81 | 1014.8 |
| 20260502201537 | 59 | 180 | 1.7 | 5.2 | 0.00 | 0.00 | 0.00 | 81 | 1015.2 |
| 20260502200035 | 59 | 229 | 1.7 | 6.1 | 0.00 | 0.00 | 0.00 | 81 | 1015.4 |